Regional Weather Roundup
Issued by NWS

Home | Current Version | Previous Version | Text Only | Print | Product List | Glossary On
Versions: 1 2 3 4 5 6 7 8 9 10 11 12 13 14 15 16 17 18 19 20 21 22 23 24 25 26 27 28 29 30 31 32 33 34 35 36 37 38 39 40 41 42 43 44 45 46 47 48 49 50
000
ASUS43 KLOT 020710
RWRIL

ILLINOIS REGIONAL WEATHER ROUNDUP
NATIONAL WEATHER SERVICE CHICAGO/ROMEOVILLE IL
200 AM CDT TUE SEP 02 2014

NOTE: "FAIR" INDICATES FEW OR NO CLOUDS BELOW 12,000 FEET WITH NO
SIGNIFICANT WEATHER AND/OR OBSTRUCTIONS TO VISIBILITY.

* THESE STATIONS ARE NOT UNDER NWS QUALITY CONTROL. THEY ALSO MAY NOT
  REPORT WEATHER SUCH AS PRECIPITATION OR FOG.

ILZ001-002-007-009-015-016-024-020800-
NORTHWEST ILLINOIS

CITY           SKY/WX    TMP DP  RH WIND       PRES   REMARKS
MOLINE         MOCLDY    68  65  90 W5        29.87R
STERLING*      MOCLDY    66  64  94 NW3       29.87S
SAVANNA*       FOG       65  63  94 CALM      29.87S VSB 1/4
$$

ILZ003-004-008-010-011-017-018-020800-
NORTH CENTRAL ILLINOIS

CITY           SKY/WX    TMP DP  RH WIND       PRES   REMARKS
ROCKFORD       PTCLDY    66  64  93 CALM      29.87R
FREEPORT*      PTCLDY    64  63  96 W3        29.89S
ROCHELLE*      MOCLDY    65  64  94 S6        29.89R
DE KALB*       MOCLDY    66  64  94 SW3       29.88R
PERU*          CLOUDY    69  66  90 SW3       29.86S
$$

ILZ005-006-012>014-019>023-020800-
NORTHEAST ILLINOIS

CITY           SKY/WX    TMP DP  RH WIND       PRES   REMARKS
CHICAGO-OHARE  LGT RAIN  70  65  84 SW3       29.83F
CHICAGO-MIDWAY CLOUDY    73  68  84 S6        29.84F
AURORA         MOCLDY    69  66  90 W5        29.86F
LANSING*         N/A    N/A N/A N/A MISG        N/A
JOLIET*        MOCLDY    68  64  89 SE3       29.86F
WAUKEGAN       MOCLDY    67  65  93 CALM      29.85S
DUPAGE AIRPORT MOCLDY    69  66  90 NW3       29.85F
KANKAKEE*      CLOUDY    67  66  95 SW5       29.89S
WHEELING       PTCLDY    70  67  90 N3        29.86F
MORRIS*        MOCLDY    68  68  99 SW3       29.85S
ROMEOVILLE*    MOCLDY    67  66  95 S6        29.86F
NORTHERLY ISL    N/A     74  65  73 W5          N/A
$$

LMZ740>746-020800-
SOUTHERN LAKE MICHIGAN

STATION/POSITION SKY/WX   TEMP    WIND        PRES    VSBY  WAVE
                          AIR SEA DIR/SP/G                  HT/PER
                          (F)     (DEG/KT/KT) (MB)    (MI)  (FT/S)
SOUTHERN BUOY              70 70  260/  6/  8 1010.4S         2/ 4
WAUKEGAN HARBOR            69     290/  4/  8   N/A
HARRISON CRIB              73     280/  9/ 10   N/A
BURNHAM HARBOR             73     270/  4/  9   N/A
CALUMET HARBOR             72     220/  3/  5 1010.1F
MICHIGAN CITY              73     200/ 11/ 14   N/A
MICHIGAN CITY 6N           73 72  230/ 10/ 14   N/A           2/ 3
ST. JOSEPH                 72 72  230/ 12/ 16   N/A           3/ 4
$$

ILZ025>027-034>036-040-047-049-050-058-095>099-020800-
WEST-CENTRAL ILLINOIS

CITY           SKY/WX    TMP DP  RH WIND       PRES   REMARKS
QUINCY         CLOUDY    70  68  93 SW9       29.89F
GALESBURG*     MOCLDY    67  66  96 W5        29.90R
MACOMB*        CLOUDY    70  69  96 SW8       29.90R
JACKSONVILLE*  LGT RAIN  72  70  95 S3        29.91F
PITTSFIELD*    CLOUDY    70  68  92 SW7       29.93R
$$

ILZ028>032-037-038-041>044-048-051>054-059>061-020800-
CENTRAL ILLINOIS

CITY           SKY/WX    TMP DP  RH WIND       PRES   REMARKS
PONTIAC        CLOUDY    72  70  94 S5        29.87F
DECATUR        LGT RAIN  69  67  93 SW8       29.94S
PEORIA         CLOUDY    72  67  84 SW8       29.89S
LACON*         CLOUDY    69  66  89 S6        29.84F
LINCOLN*       LGT RAIN  71  69  93 S6        29.90R
SPRINGFIELD    RAIN      71  68  90 SE14      29.87F
TAYLORVILLE    RAIN      68  68 100 SW3       29.95R
$$

ILZ033-039-045-046-055>057-062-063-020800-
EAST-CENTRAL ILLINOIS

CITY           SKY/WX    TMP DP  RH WIND       PRES   REMARKS
CHAMPAIGN      LGT RAIN  69  68  96 VRB3      29.92F
DANVILLE*      HVY RAIN  68  67  97 SW5       29.91S
RANTOUL*       CLOUDY    70  66  87 S7        29.93S
MATTOON        RAIN      69  68  96 S9        29.92R
PARIS*         TSTM      67  66  97 SE5       29.94F
$$

ILZ079-100>102-020800-
SOUTHWEST ILLINOIS

CITY           SKY/WX    TMP DP  RH WIND       PRES   REMARKS
BELLEVILLE     LGT RAIN  68  68 100 CALM      29.95R
SPARTA*        CLOUDY    71  68  90 N8        29.96R
$$

ILZ064>066-069>071-074>076-080>082-084>086-088>090-092>094-020800-
SOUTH-CENTRAL ILLINOIS

CITY           SKY/WX    TMP DP  RH WIND       PRES   REMARKS
CARBONDALE     CLOUDY    78  71  79 S13       29.91F HX  80
CAIRO*         CLOUDY    79  73  81 S6        29.95F HX  82
EFFINGHAM*     CLOUDY    68  65  92 SE6       29.95S
MARION         CLOUDY    79  73  83 S15       29.92F HX  82
MT. VERNON     CLOUDY    77  70  78 S7        29.92S
CENTRALIA*     HVY RAIN  70  66  88 NE12      29.93R
SALEM*         TSTM      70  69  96 NE7       29.94R
METROPOLIS*    CLOUDY    77  73  85 S6        29.95F
$$

ILZ067-068-072-073-078-083-087-091-020800-
SOUTHEAST ILLINOIS

CITY           SKY/WX    TMP DP  RH WIND       PRES   REMARKS
LAWRENCEVILLE  TSTM      70  69  97 N15       29.95R FOG
FLORA*         TSTM      69  67  95 NE6       29.96F
FAIRFIELD*     CLOUDY    77  75  94 S6        29.92R
HARRISBURG*    CLOUDY    78  73  85 S10       29.93F HX  80
ROBINSON*      CLOUDY    70  69  97 N3        30.00
CARMI*         CLOUDY    78  74  88 S8        29.92F HX  80
$$

ABBREVIATIONS USED IN REMARKS
   TC - TEMPERATURE IN CELSIUS
  WCI - WIND CHILL INDEX
   HX - HEAT INDEX
  VSB - VISIBILITY
$$




USA.gov is the U.S. government's official web portal to all federal, state and local government web resources and services.